Flag for Sierra Leone

Past Weather in Freetown, Sierra Leone — Yesterday and Last 2 Weeks

Now
77 °F

Partly sunny.


Feels Like: 78 °F
Forecast: 78 / 76 °F
Wind: 2 mph from North

Location: Conakry / Gbessia

Current Time: Jul 14, 2020 at 11:09:41 am

Latest Report: Jul 14, 2020 at 8:00 am


Visibility: N/A

Pressure: 29.89 "Hg

Humidity: 94%

Dew Point: 75 °F

Location of FreetownLocation

Past Weather in Freetown — Graph

°F

Freetown Temperature Yesterday

Maximum temperature yesterday: 82 °F (at 2:00 pm)
Minimum temperature yesterday: 75 °F (at 1:00 am)
Average temperature yesterday: 78 °F

High & Low Weather Summary for the Past Weeks

 TemperatureHumidityPressure
High86 °F (Jul 3, 1:00 pm)100% (Jul 1, 7:00 am)30.01 "Hg (Jul 1, 7:00 am)
Low73 °F (Jul 1, 7:00 am)70% (Jul 3, 1:00 pm)29.83 "Hg (Jul 1, 4:00 pm)
Average79 °F89%29.91 "Hg
* Reported Jun 29 8:00 am — Jul 14 8:00 am, Freetown. Weather by CustomWeather, © 2020

Note: Actual official high and low records may vary slightly from our data, if they occured in-between our weather recording intervals... More about our weather records

Freetown Weather History for the Previous 24 Hours

Scroll right to see more
 ConditionsComfort  
Time TempWeatherWind HumidityBarometerVisibility
8:00 am
Tue, Jul 14
77 °FPartly sunny.2 mph94%29.89 "HgN/A
7:00 am77 °FLight rain. Partly sunny.5 mph94%29.89 "Hg5 mi
6:00 am75 °FThunderstorms. Mostly cloudy.5 mph94%29.89 "Hg5 mi
2:00 am79 °FWarm.N/A94%29.95 "HgN/A
1:00 am79 °FPassing clouds.5 mph94%29.95 "HgN/A
11:00 pm
Mon, Jul 13
79 °FPassing clouds.7 mph94%29.95 "HgN/A
10:00 pm79 °FPassing clouds.9 mph89%29.95 "HgN/A
8:00 pm79 °FPartly cloudy.7 mph89%29.92 "HgN/A
7:00 pm79 °FBroken clouds.2 mph89%29.92 "HgN/A
6:00 pm79 °FLight rain. Partly sunny.2 mph89%29.92 "Hg5 mi
5:00 pm79 °FLight rain. Partly sunny.12 mph89%29.89 "Hg2 mi
4:00 pm79 °FLight rain. Partly sunny.12 mph84%29.89 "Hg5 mi
3:00 pm79 °FLight rain. Partly sunny.12 mph94%29.92 "Hg3 mi
2:00 pm82 °FPartly sunny.9 mph79%29.95 "HgN/A
1:00 pm81 °FPartly sunny.9 mph84%29.98 "HgN/A
12:00 pm81 °FPartly sunny.7 mph84%29.98 "HgN/A
11:00 am81 °FSmoke.1 mph84%29.98 "HgN/A
Weather by CustomWeather, © 2020

See weather overview